Observer details:
215 Buchloe.  Observer W. Hasubick.  0.44-m f/4.6 reflector + CCD.
349 Ageo.  Observer K. Kadota.  0.25-m f/5.0 reflector + CCD.
367 Yatsuka.  Observer H. Abe.  0.26-m f/6.0 reflector + CCD.
585 Kyiv comet station.  Observer A. Baransky.  0.7-m f/4 reflector + CCD.
703 Catalina Sky Survey.  Observers B. M. Africano, R. A. Kowalski,
    H. Groeller.  Measurers B. M. Africano, E. J. Christensen, G. A. Farneth,
    D. C. Fuls, A. R. Gibbs, A. D. Grauer, H. Groeller, J. A. Johnson,
    R. A. Kowalski, S. M. Larson, G. J. Leonard, R. L. Seaman, F. C. Shelly.
    0.68-m Schmidt + 10K CCD.
C51 WISE.  Observer Near-Earth Object Wide-field Infrared Survey Explorer.
    Measurers A. K. Mainzer, J. M. Bauer, T. Grav, J. R. Masiero,
    J. P. Chesley, R. M. Cutri, J. W. Dailey, E. Kramer, S. Sonnett,
    E. L. Wright.
D29 Purple Mountain Observatory, XuYi Station.  Observers H. B. Zhao, B. Li,
    G. Zhaori, R. Q. Hong, L. F. Hu.  Measurers H. B. Zhao, B. Li, H. Lu,
    G. Zhaori.  1.04-m f/1.8 Schmidt + CCD.
G40 Slooh.com Canary Islands Observatory.  Observer B. Lutkenhoner.  0.43-m
    f/6.8 Corrected Dall-Kirkham + CCD.
G96 Mt. Lemmon Survey.  Observer A. R. Gibbs.  Measurers B. M. Africano,
    E. J. Christensen, G. A. Farneth, D. C. Fuls, A. R. Gibbs, A. D. Grauer,
    H. Groeller, R. A. Kowalski, S. M. Larson, G. J. Leonard, R. L. Seaman,
    F. C. Shelly.  1.5-m reflector + 10K CCD.
Q11 Shinshiro.  Observer T. Ikemura.  Measurer H. Sato.  0.35-m f/5 reflector
    + CCD.
T05 ATLAS-HKO, Haleakala.  Observers L. Denneau, H. Flewelling, A. Heinze,
    H. Weiland, J. Tonry.  Measurers L. Denneau, H. Flewelling, A. Heinze,
    J. Tonry, A. Fitzsimmons, D. Young, N. Erasmus.  0.5-m f/2.0 Schmidt +
    CCD.
T08 ATLAS-MLO, Mauna Loa.  Observers L. Denneau, H. Flewelling, A. Heinze,
    H. Weiland, J. Tonry.  Measurers L. Denneau, H. Flewelling, A. Heinze,
    J. Tonry, A. Fitzsimmons, D. Young, N. Erasmus, H. Weiland, B. Stalder.
    0.5-m f/2.0 Schmidt + CCD, 0.5-m reflector + CCD.
 
Orbital elements:
    P/2018 P3 (PANSTARRS)
Epoch 2018 Oct. 9.0 TT = JDT 2458400.5
T 2018 Oct.  9.45843 TT                                 MPCW
q   1.7564485            (2000.0)            P               Q
n   0.18902481     Peri.  305.88345     +0.98765408     -0.08270480
a   3.0069313      Node    59.20996     +0.13595586     +0.87443023
e   0.4158668      Incl.    8.90912     -0.07781654     +0.47804989
P   5.21
>From 222 observations 2018 Aug. 8-Dec. 14, mean residual 0".5.

    P/2018 P3 (PANSTARRS)
Epoch 2024 Jan. 11.0 TT = JDT 2460320.5
T 2023 Dec. 26.54847 TT                                 MPCW
q   1.7506942            (2000.0)            P               Q
n   0.18930180     Peri.  306.00767     +0.98754458     -0.08398011
a   3.0039974      Node    59.16040     +0.13710447     +0.87417372
e   0.4172118      Incl.    8.91470     -0.07718856     +0.47829661
P   5.21
>From 222 observations 2018 Aug. 8-Dec. 14, mean residual 0".5.

    P/2018 P3 (PANSTARRS)
Epoch 2019 Apr. 27.0 TT = JDT 2458600.5
T 2018 Oct.  9.45935 TT                                 MPCW
q   1.7563779            (2000.0)            P               Q
n   0.18899942     Peri.  305.88100     +0.98765820     -0.08265851
a   3.0072007      Node    59.20971     +0.13591400     +0.87443683
e   0.4159426      Incl.    8.90902     -0.07783742     +0.47804582
P   5.21
>From 222 observations 2018 Aug. 8-Dec. 14, mean residual 0".5.

Ephemeris:
    P/2018 P3 (PANSTARRS)
Date    TT    R. A. (2000) Decl.     Delta      r     Elong.  Phase   m1    m2
2018 11 20    00 03 35.2 -08 28 28   1.0810  1.7903   119.7    28.6  17.2
...
2018 12 05    00 18 23.5 -04 21 03   1.2295  1.8182   109.9    30.7  17.5
...
2018 12 13    00 28 12.9 -02 07 27   1.3170  1.8362   104.9    31.2  17.7
...
2018 12 19    00 36 18.5 -00 27 33   1.3858  1.8510   101.4    31.4  17.9
2018 12 20    00 37 42.6 -00 10 59   1.3975  1.8535   100.8    31.4  17.9
2018 12 21    00 39 07.7 +00 05 35   1.4093  1.8561   100.2    31.4  17.9
...
2018 12 27    00 47 54.7 +01 44 18   1.4814  1.8723    96.8    31.4  18.1
...
2019 01 04    01 00 18.9 +03 53 51   1.5810  1.8955    92.3    31.2  18.3
...
2019 01 19    01 25 21.8 +07 48 11   1.7765  1.9432    84.3    30.2  18.6

Gareth V. Williams           (C) Copyright 2018 MPC           M.P.E.C. 2018-Y53



More information about the Iaude mailing list